User: anonymous   Login
Location: Caltech
(34.1382°N, 118.1253°W)
Time: 01:48:03
(UTC-07:00)
Language:

Iridium 62 - Orbit

View from above orbital plane
View from above orbital plane
View from above satellite
View from above satellite

Ground track
Ground track

The orbit data is extracted from the following two-line orbital elements,

1 25285U 98021A   17144.91098282 +.00000167 +00000-0 +52455-4 0  9997
2 25285 086.3991 233.6178 0002465 095.3825 264.7652 14.34222854001692
Epoch (UTC): 24 May 2017 21:51:48
Eccentricity: 0.0002465
inclination: 86.3991°
perigee height: 776 km
apogee height: 779 km
right ascension of ascending node: 233.6178°
argument of perigee: 95.3825°
revolutions per day: 14.34222854
mean anomaly at epoch: 264.7652°
orbit number at epoch: 169

The dashed part of the orbit path shows where the satellite is in the earth's shadow,  

DLR